Location: Newark
(53.3333°N, 83.7500°E)
Time: 19:19:29
(UTC+00:00)

SR - Pass Details

Date: 20 November 2019
Orbit: 573 x 882 km, 66.7° (Epoch: 10 December)

Event Time Altitude Azimuth Distance (km) Brightness Sun altitude
Rises 14:53:03 0° 312° (NW) 3,448 ? -39.5°
Reaches altitude 10° 14:55:51 10° 323° (NW) 2,533 ? -39.9°
Enters shadow 14:57:40 18° 336° (NNW) 2,018 ? -40.2°
